Retour au catalogue

STARLINK-11172

ActifCommunicationsVLEO
NORAD 60193·PAYLOAD·🇺🇸 United States

Lancé Jul 3, 2024 depuis Cape Canaveral Space Force Station

Loading…

Prochains Passages (prochaines 24 heures)

TLE

FraisSource: CelesTrak SupGP

Époque: Sep 15, 2026, 03:34 UTC

1 60193C 24124L   26258.14909722  .00067783  00000+0  55809-3 0  2587
2 60193  53.1570 307.3715 0001320  89.5793 127.0427 15.69686310    14

Suivez STARLINK-11172 en temps réel avec AllMySat

Download on the App Store